SCP
0 0 0 0 0 0 0 0 0 0 0 0 0 0 0 0 0 0 0 0 0 0 0 0 0 0 0 0 0 0 0 0 0 0 0 -0 -0 0 0 0 0 0 -0 -0
0 0 0 0 0 0 0 0 0 0 0 0 0 0 0 0 0 0 0 0 0 0 0 0 0 0 0 0 0 0 0 0 0 0 -0 -0 -0 -0 -0 -0 0 -0 -0 -0
0 0 0 0 0 0 0 0 0 0 0 0 0 0 0 0 0 0 0 0 0 0 0 0 0 0 0 0 0 0 0 0 0 0 0 -0 -0 0 0 0 -0 -0 -0 0
0 0 0 0 0 0 0 0 0 0 0 0 0 0 0 0 0 0 0 0 0 0 0 0 0 0 0 0 0 0 0 0 0 0 0 -0 0 0 0 -0 0 -0 0 0
0 0 0 0 0 0 0 0 0 0 0 0 0 0 0 0 0 0 0 0 0 0 0 0 0 0 0 0 0 0 0 0 0 0 0 0 0 0 0 0 0 0 0 0
0 0 0 0 0 0 0 0 0 0 0 0 0 0 0 0 0 0 0 0 0 0 0 0 0 0 0 0 0 0 0 0 0 0 -0 -0 -0 -0 -0 -0 -0 0 0 0
0 0 0 0 0 0 0 0 0 0 -0 -0 0 0 0 0 0 0 0 0 0 0 0 0 0 0 0 0 0 0 0 0 0 0 -0 -0 -0 0 -0 -0 0 0 0 0
0 0 0 0 0 0 0 0 0 0 0 0 0 0 0 0 0 0 0 0 0 0 0 0 0 0 0 0 0 0 0 0 0 0 0 -0 0 0 -0 0 0 0 0 0
0 0 0 0 0 0 0 0 0 0 0 0 0 0 0 0 0 0 0 0 0 0 0 0 0 0 0 0 0 0 0 0 0 0 -0 0 0 0 0 0 0 0 0 0
0 0 0 0 0 0 0 0 0 0 0 0 0 0 0 0 0 0 0 0 0 0 0 0 0 0 0 0 0 0 0 0 0 0 -0 -0 -0 -0 -0 -0 -0 0 0 0
0 0 0 0 0 0 0 0 0 0 0 0 0 0 0 0 0 0 0 0 0 0 0 0 0 0 0 0 0 0 0 0 0 0 0 -0 -0 -0 -0 -0 -0 -0 -0 0
0 0 0 0 0 0 0 0 0 0 0 0 0 0 0 0 0 0 0 0 0 0 0 0 0 0 0 0 0 0 0 0 0 0 0 0 -0 0 -0 -0 0 0 0 -0
0 0 0 0 0 0 0 0 0 0 0 0 0 0 0 0 0 0 0 0 0 0 0 0 0 0 0 0 0 0 0 0 0 0 0 0 -0 -0 -0 -0 0 0 0 -0
0 0 0 0 0 0 0 0 0 0 0 0 0 0 0 0 0 0 0 0 0 0 0 0 0 0 0 0 0 0 0 0 0 0 0 0 0 0 0 -0 -0 -0 -0 0
0 0 0 0 0 0 0 0 0 0 0 0 0 0 0 0 0 0 0 0 0 0 0 0 0 0 0 0 0 0 0 0 0 0 0 0 0 0 0 -0 -0 -0 -0 -0
0 0 0 0 0 0 0 0 0 0 0 0 0 0 0 0 0 0 0 0 0 0 0 0 0 0 0 0 0 0 0 0 0 0 0 0 0 0 0 0 0 0 0 0
0 0 0 0 0 0 0 0 0 0 0 0 0 0 0 0 0 0 0 0 0 0 0 0 0 0 0 0 0 0 0 0 0 0 0 0 0 0 0 0 0 0 0 0
0 0 0 0 0 0 0 0 0 0 0 0 0 0 0 0 0 0 0 0 0 0 0 0 0 0 0 0 0 0 0 0 0 0 0 0 0 0 0 0 0 0 0 0
0 0 0 0 0 0 0 0 0 0 0 0 0 0 0 0 0 0 0 0 0 0 0 0 0 0 0 0 0 0 0 0 0 0 0 0 0 0 0 0 0 0 0 0
0 0 0 0 0 0 0 0 0 0 0 0 0 0 0 0 0 0 0 0 0 0 0 0 0 0 0 0 0 0 0 0 0 0 0 0 0 0 0 0 0 0 0 0
0 0 0 0 0 0 0 0 0 0 0 0 0 0 0 0 0 0 0 0 0 0 0 0 0 0 0 0 0 0 0 0 0 0 0 0 0 0 0 0 0 0 0 0
0 0 0 0 0 0 0 0 0 0 0 0 0 0 0 0 0 0 0 0 0 0 0 0 0 0 0 0 0 0 0 0 0 0 0 0 0 0 0 0 0 0 0 0
0 0 0 0 0 0 0 0 0 0 0 0 0 0 0 0 0 0 0 0 0 0 0 0 0 0 0 0 0 0 0 0 0 0 0 0 0 0 0 0 0 0 0 0
0 0 0 0 0 0 0 0 0 0 0 0 0 0 0 0 0 0 0 0 0 0 0 0 0 0 0 0 0 0 0 0 0 0 0 0 0 0 0 0 0 0 0 0
0 0 0 0 0 0 0 0 0 0 0 0 0 0 0 0 0 0 0 0 0 0 0 0 0 0 0 0 0 0 0 0 0 0 0 0 0 0 0 0 0 0 0 0
0 0 0 0 0 0 0 0 0 0 0 0 0 0 0 0 0 0 0 0 0 0 0 0 0 0 0 0 0 0 0 0 0 0 0 0 0 0 0 0 0 0 0 0
0 0 0 0 0 0 0 0 0 0 0 0 0 0 0 0 0 0 0 0 0 0 0 0 0 0 0 0 0 0 0 0 0 0 0 0 0 0 0 0 0 0 0 0
Wind_Speed_500mb
10 10 10 14 17 25 35 43 17 40 28 53 29 32 55 66 46 42 45 49 57 68 76 79 85 76 70 69 68 70 60 64 62 62 64 68 68 67 61 62 60 58 47 54
9 15 12 14 34 36 49 48 46 57 60 72 86 84 58 40 33 42 47 49 56 72 76 80 80 71 73 73 72 55 56 60 62 63 65 66 66 63 58 59 55 47 58 68
10 6 12 17 30 42 20 20 50 37 59 31 35 40 23 38 40 48 43 41 55 66 70 72 74 69 72 71 56 53 53 53 55 57 60 62 61 58 55 53 50 45 54 36
7 6 7 12 10 14 33 32 49 31 41 31 33 46 52 52 48 40 32 40 48 57 61 62 63 61 65 62 54 49 50 51 49 50 51 56 56 53 48 42 40 38 16 7
5 7 20 20 8 15 17 21 46 51 51 59 58 41 58 47 23 28 31 32 43 51 52 56 57 58 60 57 54 49 50 52 50 50 50 49 47 47 40 35 34 17 22 33
6 8 15 8 5 12 11 21 31 56 43 37 22 5 14 15 26 39 35 35 40 45 45 48 49 51 54 54 54 54 54 51 48 49 50 46 42 34 29 27 19 24 39 49
14 10 20 21 24 20 9 15 2 53 53 46 14 32 34 37 43 45 32 33 38 40 39 41 41 43 46 52 54 52 52 47 46 44 44 41 35 30 28 34 39 42 46 50
10 10 28 37 20 17 15 8 25 44 48 46 36 35 39 45 46 39 29 32 35 34 35 35 34 35 36 42 47 48 49 42 40 42 39 35 31 29 29 36 45 51 53 59
30 22 8 80 32 70 20 16 26 39 42 42 37 39 43 51 47 35 27 31 33 28 28 28 26 29 27 32 36 43 47 52 45 39 34 31 30 33 37 37 45 53 60 62
6 20 34 60 77 73 50 56 53 43 39 39 46 56 61 55 48 40 30 29 31 29 25 22 18 23 17 25 29 31 38 43 48 48 43 37 37 41 45 52 54 57 60 66
20 31 32 45 72 98 89 81 83 85 87 83 75 76 66 53 45 45 33 32 31 30 24 21 15 11 16 17 24 29 31 35 38 40 41 41 44 44 44 49 52 58 63 63
22 24 44 40 63 70 75 76 70 73 67 62 57 56 52 52 46 46 40 33 32 32 31 23 20 12 8 12 18 24 26 30 35 34 34 35 38 43 47 47 49 51 52 57
46 46 51 59 41 52 58 64 60 55 52 58 58 58 54 54 47 45 45 39 41 37 35 30 29 25 19 14 9 10 10 12 13 16 22 26 27 28 34 36 40 41 44 43
92 79 68 87 66 72 68 67 58 62 60 57 53 50 54 56 53 53 57 52 49 40 43 39 38 34 31 26 18 12 9 8 9 5 4 9 12 12 15 18 23 26 23 19
78 85 96 87 71 76 72 65 72 68 70 66 62 61 59 63 65 65 61 57 54 50 52 51 51 45 37 32 22 15 9 4 4 7 7 5 6 7 8 8 7 7 12 15
63 75 84 91 93 89 85 81 85 83 78 75 71 69 65 63 60 58 53 51 54 55 53 55 56 50 43 41 31 23 16 11 6 4 3 2 3 5 6 6 7 8 8 9
71 64 79 82 90 90 90 82 85 82 78 75 68 60 57 52 55 55 55 47 49 47 46 51 53 48 52 48 44 30 25 20 17 13 10 9 6 4 4 6 7 7 8 9
73 76 77 78 82 78 79 76 74 68 66 61 58 53 53 56 61 56 45 39 44 44 46 44 45 48 56 57 54 46 36 29 24 20 19 15 12 9 7 6 6 7 8 10
96 101 107 100 98 93 88 82 76 69 63 59 57 54 54 56 54 44 39 45 47 46 40 41 43 47 53 59 62 60 52 44 36 30 26 24 24 21 18 16 15 14 14 14
78 80 83 83 80 77 71 61 63 62 54 49 49 49 52 47 38 37 39 43 39 38 36 33 41 50 50 53 63 67 64 56 49 42 36 33 31 28 26 25 24 23 22 21
54 55 60 59 57 51 51 44 47 54 43 40 41 43 42 33 34 37 40 40 27 35 36 35 38 42 46 51 57 67 69 68 60 54 48 39 34 35 35 33 31 29 28 27
25 29 33 37 41 43 36 33 34 36 38 38 38 34 33 32 35 35 34 33 33 34 32 34 33 35 38 44 51 61 67 70 67 61 56 50 44 38 37 35 33 29 28 29
28 31 34 35 37 37 33 33 32 28 32 32 31 29 27 29 29 29 29 31 31 33 33 32 31 34 36 39 42 49 58 65 67 65 61 56 51 46 40 35 32 29 22 28
31 31 36 35 30 33 32 30 28 31 34 32 28 26 24 23 23 25 26 24 23 24 24 24 30 29 32 33 35 39 42 49 54 56 57 55 51 43 34 30 28 24 25 31
32 34 36 30 28 24 27 30 33 36 33 28 24 18 17 17 17 14 14 13 16 16 12 13 21 26 26 27 26 31 30 32 36 38 39 39 35 31 27 24 30 29 25 23
33 35 29 22 22 23 29 33 37 36 29 26 22 17 14 11 10 8 8 8 8 8 6 8 9 12 15 19 21 21 21 21 22 23 23 23 23 25 27 27 24 20 19 20
29 26 20 20 24 27 31 33 35 35 32 28 23 22 19 18 17 15 15 17 17 17 16 15 15 16 15 17 16 16 16 17 20 21 22 23 23 21 20 19 18 20 23 24
Wind_Direction_500mb
280 261 206 204 219 198 210 219 211 258 261 271 270 288 299 302 298 301 313 332 329 327 328 330 332 335 329 325 323 329 330 332 330 327 323 318 317 317 316 314 311 302 291 286
281 258 243 250 249 234 230 237 246 256 270 267 279 281 282 284 301 300 315 331 326 327 330 333 334 331 332 333 329 338 335 332 330 328 325 326 327 329 324 319 318 317 299 292
262 336 312 283 236 228 208 217 223 235 241 266 276 277 285 304 301 296 311 323 323 326 329 332 333 333 335 336 341 340 334 331 332 332 331 333 333 332 333 332 328 311 304 293
265 1 262 241 197 186 209 240 222 243 249 242 252 271 292 292 290 292 303 321 324 327 328 335 334 339 338 346 345 339 337 333 334 332 336 338 338 341 346 342 340 339 335 39
200 221 299 288 196 170 174 261 222 226 248 254 263 286 285 288 246 297 308 321 327 332 331 339 342 346 347 354 352 349 344 346 344 344 344 345 350 355 353 356 356 22 80 110
117 200 243 237 124 143 120 286 225 199 229 240 234 224 258 235 286 309 310 319 328 334 333 340 347 352 357 360 2 4 360 356 356 354 353 356 358 3 7 25 46 82 95 100
207 247 275 247 154 143 101 245 204 189 212 213 193 231 270 279 285 300 300 313 326 334 332 340 346 357 4 10 11 12 3 5 8 7 5 6 9 24 49 74 85 89 95 98
187 215 270 159 126 188 214 234 216 197 205 207 229 255 270 283 286 293 295 310 321 330 329 335 342 359 6 18 19 24 15 14 18 21 16 20 30 48 59 73 84 91 95 95
196 210 211 179 207 215 224 238 223 221 221 228 239 262 288 293 289 289 283 304 313 316 327 326 341 355 11 25 21 33 29 27 30 33 35 39 51 63 73 78 82 87 93 99
104 221 234 210 230 242 243 247 255 250 246 249 256 283 289 289 284 287 275 294 299 297 316 313 336 357 17 34 34 27 45 39 36 46 51 58 64 71 76 81 84 88 92 94
256 262 289 255 242 253 254 258 261 264 262 265 268 278 281 281 280 281 283 283 288 287 290 294 300 351 34 46 47 40 40 48 52 50 55 62 66 69 76 81 85 92 96 98
229 184 213 243 253 262 255 259 268 269 268 268 261 277 276 278 280 276 282 276 279 278 277 277 270 279 334 55 56 54 46 46 42 46 60 65 70 80 79 81 84 88 87 91
232 238 249 257 253 255 264 267 269 263 263 270 273 282 272 277 277 275 276 272 275 276 275 258 256 254 273 294 313 347 352 1 40 51 55 68 73 78 92 95 96 99 103 101
237 242 252 249 253 264 266 271 270 266 268 270 271 274 271 273 275 277 271 280 279 270 261 254 253 252 253 270 281 293 316 349 2 30 59 46 56 76 91 99 108 112 114 110
236 239 244 258 258 261 263 264 264 263 270 270 271 273 274 277 276 281 284 280 271 264 255 248 245 245 241 247 257 261 262 288 10 21 32 69 91 106 107 113 117 121 131 139
244 243 250 251 256 259 261 265 266 267 271 272 275 277 281 280 279 278 279 273 265 258 251 247 245 240 238 236 239 242 240 235 213 169 140 121 128 122 127 138 137 142 154 174
237 236 242 243 250 258 261 268 269 274 276 277 279 283 283 279 274 272 275 277 269 259 253 248 245 238 236 235 234 233 236 232 228 216 202 191 173 159 163 175 188 196 197 204
244 247 255 262 266 266 271 272 274 273 274 281 279 276 274 268 269 275 270 268 261 256 249 246 243 236 232 227 229 232 234 237 235 231 228 229 232 230 237 255 260 255 249 241
250 256 260 260 264 268 270 272 273 278 280 277 273 269 273 270 269 267 258 255 258 262 259 247 242 240 233 226 225 227 231 237 241 241 239 237 239 244 248 255 260 265 269 269
255 260 264 266 269 268 271 278 280 277 278 274 272 269 266 263 263 259 255 256 263 268 264 255 242 239 236 230 225 228 231 233 238 243 246 247 249 251 253 255 259 262 265 271
251 261 268 271 272 275 275 277 273 272 269 263 259 261 262 263 249 244 248 259 268 264 260 252 245 236 234 231 229 228 228 230 231 235 241 246 252 253 256 259 261 263 266 270
265 275 273 273 271 270 268 269 264 261 255 250 249 245 245 243 248 252 256 263 265 260 252 246 248 240 234 235 231 229 228 230 232 234 237 243 251 258 257 256 260 265 272 279
282 287 289 276 276 268 259 252 243 240 241 237 235 234 238 246 250 259 262 260 259 258 255 246 242 240 235 238 236 231 229 230 232 235 239 244 251 258 256 254 253 254 263 280
290 285 284 280 264 258 241 227 220 217 218 216 222 232 242 249 248 254 257 252 248 250 254 247 237 238 234 236 240 233 232 232 235 238 241 245 248 247 243 245 249 246 270 274
303 293 284 278 266 242 216 207 205 205 204 207 215 229 243 243 242 247 242 237 236 240 236 233 223 224 229 228 229 222 230 229 233 238 237 235 236 234 231 237 246 254 258 251
309 294 279 267 253 219 205 203 200 199 201 202 195 193 206 209 198 190 179 182 194 189 182 177 193 208 203 197 198 209 217 220 215 210 206 210 217 228 231 237 247 248 243 245
321 310 288 267 243 221 203 199 205 199 192 190 187 166 166 155 149 148 142 135 127 123 123 124 135 139 150 164 172 172 171 175 176 183 193 203 215 225 229 227 228 235 247 256
Wind_Speed_850mb
10 10 10 14 17 25 35 43 17 40 28 53 29 32 55 66 46 42 45 49 57 68 76 79 85 76 70 69 68 70 60 64 62 62 64 68 68 67 61 62 60 58 47 54
9 15 12 14 34 36 49 48 46 57 60 72 86 84 58 40 33 42 47 49 56 72 76 80 80 71 73 73 72 55 56 60 62 63 65 66 66 63 58 59 55 47 58 68
10 6 12 17 30 42 20 20 50 37 59 31 35 40 23 38 40 48 43 41 55 66 70 72 74 69 72 71 56 53 53 53 55 57 60 62 61 58 55 53 50 45 54 36
7 6 7 12 10 14 33 32 49 31 41 31 33 46 52 52 48 40 32 40 48 57 61 62 63 61 65 62 54 49 50 51 49 50 51 56 56 53 48 42 40 38 16 7
5 7 20 20 8 15 17 21 46 51 51 59 58 41 58 47 23 28 31 32 43 51 52 56 57 58 60 57 54 49 50 52 50 50 50 49 47 47 40 35 34 17 22 33
6 8 15 8 5 12 11 21 31 56 43 37 22 5 14 15 26 39 35 35 40 45 45 48 49 51 54 54 54 54 54 51 48 49 50 46 42 34 29 27 19 24 39 49
14 10 20 21 24 20 9 15 2 53 53 46 14 32 34 37 43 45 32 33 38 40 39 41 41 43 46 52 54 52 52 47 46 44 44 41 35 30 28 34 39 42 46 50
10 10 28 37 20 17 15 8 25 44 48 46 36 35 39 45 46 39 29 32 35 34 35 35 34 35 36 42 47 48 49 42 40 42 39 35 31 29 29 36 45 51 53 59
30 22 8 80 32 70 20 16 26 39 42 42 37 39 43 51 47 35 27 31 33 28 28 28 26 29 27 32 36 43 47 52 45 39 34 31 30 33 37 37 45 53 60 62
6 20 34 60 77 73 50 56 53 43 39 39 46 56 61 55 48 40 30 29 31 29 25 22 18 23 17 25 29 31 38 43 48 48 43 37 37 41 45 52 54 57 60 66
20 31 32 45 72 98 89 81 83 85 87 83 75 76 66 53 45 45 33 32 31 30 24 21 15 11 16 17 24 29 31 35 38 40 41 41 44 44 44 49 52 58 63 63
22 24 44 40 63 70 75 76 70 73 67 62 57 56 52 52 46 46 40 33 32 32 31 23 20 12 8 12 18 24 26 30 35 34 34 35 38 43 47 47 49 51 52 57
46 46 51 59 41 52 58 64 60 55 52 58 58 58 54 54 47 45 45 39 41 37 35 30 29 25 19 14 9 10 10 12 13 16 22 26 27 28 34 36 40 41 44 43
92 79 68 87 66 72 68 67 58 62 60 57 53 50 54 56 53 53 57 52 49 40 43 39 38 34 31 26 18 12 9 8 9 5 4 9 12 12 15 18 23 26 23 19
78 85 96 87 71 76 72 65 72 68 70 66 62 61 59 63 65 65 61 57 54 50 52 51 51 45 37 32 22 15 9 4 4 7 7 5 6 7 8 8 7 7 12 15
63 75 84 91 93 89 85 81 85 83 78 75 71 69 65 63 60 58 53 51 54 55 53 55 56 50 43 41 31 23 16 11 6 4 3 2 3 5 6 6 7 8 8 9
71 64 79 82 90 90 90 82 85 82 78 75 68 60 57 52 55 55 55 47 49 47 46 51 53 48 52 48 44 30 25 20 17 13 10 9 6 4 4 6 7 7 8 9
73 76 77 78 82 78 79 76 74 68 66 61 58 53 53 56 61 56 45 39 44 44 46 44 45 48 56 57 54 46 36 29 24 20 19 15 12 9 7 6 6 7 8 10
96 101 107 100 98 93 88 82 76 69 63 59 57 54 54 56 54 44 39 45 47 46 40 41 43 47 53 59 62 60 52 44 36 30 26 24 24 21 18 16 15 14 14 14
78 80 83 83 80 77 71 61 63 62 54 49 49 49 52 47 38 37 39 43 39 38 36 33 41 50 50 53 63 67 64 56 49 42 36 33 31 28 26 25 24 23 22 21
54 55 60 59 57 51 51 44 47 54 43 40 41 43 42 33 34 37 40 40 27 35 36 35 38 42 46 51 57 67 69 68 60 54 48 39 34 35 35 33 31 29 28 27
25 29 33 37 41 43 36 33 34 36 38 38 38 34 33 32 35 35 34 33 33 34 32 34 33 35 38 44 51 61 67 70 67 61 56 50 44 38 37 35 33 29 28 29
28 31 34 35 37 37 33 33 32 28 32 32 31 29 27 29 29 29 29 31 31 33 33 32 31 34 36 39 42 49 58 65 67 65 61 56 51 46 40 35 32 29 22 28
31 31 36 35 30 33 32 30 28 31 34 32 28 26 24 23 23 25 26 24 23 24 24 24 30 29 32 33 35 39 42 49 54 56 57 55 51 43 34 30 28 24 25 31
32 34 36 30 28 24 27 30 33 36 33 28 24 18 17 17 17 14 14 13 16 16 12 13 21 26 26 27 26 31 30 32 36 38 39 39 35 31 27 24 30 29 25 23
33 35 29 22 22 23 29 33 37 36 29 26 22 17 14 11 10 8 8 8 8 8 6 8 9 12 15 19 21 21 21 21 22 23 23 23 23 25 27 27 24 20 19 20
29 26 20 20 24 27 31 33 35 35 32 28 23 22 19 18 17 15 15 17 17 17 16 15 15 16 15 17 16 16 16 17 20 21 22 23 23 21 20 19 18 20 23 24
Wind_Direction_850mb
280 261 206 204 219 198 210 219 211 258 261 271 270 288 299 302 298 301 313 332 329 327 328 330 332 335 329 325 323 329 330 332 330 327 323 318 317 317 316 314 311 302 291 286
281 258 243 250 249 234 230 237 246 256 270 267 279 281 282 284 301 300 315 331 326 327 330 333 334 331 332 333 329 338 335 332 330 328 325 326 327 329 324 319 318 317 299 292
262 336 312 283 236 228 208 217 223 235 241 266 276 277 285 304 301 296 311 323 323 326 329 332 333 333 335 336 341 340 334 331 332 332 331 333 333 332 333 332 328 311 304 293
265 1 262 241 197 186 209 240 222 243 249 242 252 271 292 292 290 292 303 321 324 327 328 335 334 339 338 346 345 339 337 333 334 332 336 338 338 341 346 342 340 339 335 39
200 221 299 288 196 170 174 261 222 226 248 254 263 286 285 288 246 297 308 321 327 332 331 339 342 346 347 354 352 349 344 346 344 344 344 345 350 355 353 356 356 22 80 110
117 200 243 237 124 143 120 286 225 199 229 240 234 224 258 235 286 309 310 319 328 334 333 340 347 352 357 360 2 4 360 356 356 354 353 356 358 3 7 25 46 82 95 100
207 247 275 247 154 143 101 245 204 189 212 213 193 231 270 279 285 300 300 313 326 334 332 340 346 357 4 10 11 12 3 5 8 7 5 6 9 24 49 74 85 89 95 98
187 215 270 159 126 188 214 234 216 197 205 207 229 255 270 283 286 293 295 310 321 330 329 335 342 359 6 18 19 24 15 14 18 21 16 20 30 48 59 73 84 91 95 95
196 210 211 179 207 215 224 238 223 221 221 228 239 262 288 293 289 289 283 304 313 316 327 326 341 355 11 25 21 33 29 27 30 33 35 39 51 63 73 78 82 87 93 99
104 221 234 210 230 242 243 247 255 250 246 249 256 283 289 289 284 287 275 294 299 297 316 313 336 357 17 34 34 27 45 39 36 46 51 58 64 71 76 81 84 88 92 94
256 262 289 255 242 253 254 258 261 264 262 265 268 278 281 281 280 281 283 283 288 287 290 294 300 351 34 46 47 40 40 48 52 50 55 62 66 69 76 81 85 92 96 98
229 184 213 243 253 262 255 259 268 269 268 268 261 277 276 278 280 276 282 276 279 278 277 277 270 279 334 55 56 54 46 46 42 46 60 65 70 80 79 81 84 88 87 91
232 238 249 257 253 255 264 267 269 263 263 270 273 282 272 277 277 275 276 272 275 276 275 258 256 254 273 294 313 347 352 1 40 51 55 68 73 78 92 95 96 99 103 101
237 242 252 249 253 264 266 271 270 266 268 270 271 274 271 273 275 277 271 280 279 270 261 254 253 252 253 270 281 293 316 349 2 30 59 46 56 76 91 99 108 112 114 110
236 239 244 258 258 261 263 264 264 263 270 270 271 273 274 277 276 281 284 280 271 264 255 248 245 245 241 247 257 261 262 288 10 21 32 69 91 106 107 113 117 121 131 139
244 243 250 251 256 259 261 265 266 267 271 272 275 277 281 280 279 278 279 273 265 258 251 247 245 240 238 236 239 242 240 235 213 169 140 121 128 122 127 138 137 142 154 174
237 236 242 243 250 258 261 268 269 274 276 277 279 283 283 279 274 272 275 277 269 259 253 248 245 238 236 235 234 233 236 232 228 216 202 191 173 159 163 175 188 196 197 204
244 247 255 262 266 266 271 272 274 273 274 281 279 276 274 268 269 275 270 268 261 256 249 246 243 236 232 227 229 232 234 237 235 231 228 229 232 230 237 255 260 255 249 241
250 256 260 260 264 268 270 272 273 278 280 277 273 269 273 270 269 267 258 255 258 262 259 247 242 240 233 226 225 227 231 237 241 241 239 237 239 244 248 255 260 265 269 269
255 260 264 266 269 268 271 278 280 277 278 274 272 269 266 263 263 259 255 256 263 268 264 255 242 239 236 230 225 228 231 233 238 243 246 247 249 251 253 255 259 262 265 271
251 261 268 271 272 275 275 277 273 272 269 263 259 261 262 263 249 244 248 259 268 264 260 252 245 236 234 231 229 228 228 230 231 235 241 246 252 253 256 259 261 263 266 270
265 275 273 273 271 270 268 269 264 261 255 250 249 245 245 243 248 252 256 263 265 260 252 246 248 240 234 235 231 229 228 230 232 234 237 243 251 258 257 256 260 265 272 279
282 287 289 276 276 268 259 252 243 240 241 237 235 234 238 246 250 259 262 260 259 258 255 246 242 240 235 238 236 231 229 230 232 235 239 244 251 258 256 254 253 254 263 280
290 285 284 280 264 258 241 227 220 217 218 216 222 232 242 249 248 254 257 252 248 250 254 247 237 238 234 236 240 233 232 232 235 238 241 245 248 247 243 245 249 246 270 274
303 293 284 278 266 242 216 207 205 205 204 207 215 229 243 243 242 247 242 237 236 240 236 233 223 224 229 228 229 222 230 229 233 238 237 235 236 234 231 237 246 254 258 251
309 294 279 267 253 219 205 203 200 199 201 202 195 193 206 209 198 190 179 182 194 189 182 177 193 208 203 197 198 209 217 220 215 210 206 210 217 228 231 237 247 248 243 245
321 310 288 267 243 221 203 199 205 199 192 190 187 166 166 155 149 148 142 135 127 123 123 124 135 139 150 164 172 172 171 175 176 183 193 203 215 225 229 227 228 235 247 256